Regional Weather Roundup
Issued by NWS

Home | Current Version | Previous Version | Text Only | Print | Product List | Glossary On
Versions: 1 2 3 4 5 6 7 8 9 10 11 12 13 14 15 16 17 18 19 20 21 22 23 24 25 26 27 28 29 30 31 32 33 34 35 36 37 38 39 40 41 42 43 44 45 46 47 48 49 50
000
ASUS42 KTBW 202210
RWRFL
FLORIDA REGIONAL WEATHER ROUNDUP
NATIONAL WEATHER SERVICE TAMPA BAY RUSKIN FL
600 PM EDT SAT SEP 20 2014

NOTE: "FAIR" INDICATES FEW OR NO CLOUDS BELOW 12,000 FEET WITH NO
SIGNIFICANT WEATHER AND/OR OBSTRUCTIONS TO VISIBILITY.


FLZ001>010-012>015-112-114-115-202300-
PANHANDLE FLORIDA

CITY           SKY/WX    TMP DP  RH WIND       PRES   REMARKS
PENSACOLA      SUNNY     82  66  58 NE10      29.95F
PENSACOLA NAS  MOSUNNY   84  66  54 NE13      29.94F
MILTON NAS     MOSUNNY   81  66  60 NE7       29.96F
CRESTVIEW      MOSUNNY   82  68  62 NE9       29.97F
DUKE FIELD     FAIR      83  74  73 NE8       29.96S
VALPARAISO     MOSUNNY   84  66  54 NE8       29.95S
MARY ESTHER    SUNNY     84  62  48 NE10      29.93F
TRI COUNTY     FAIR      82  68  62 MISG      29.97S
PANAMA CITY    FAIR      83  66  56 NE12      29.94F
TYNDALL AFB    SUNNY     83  73  71 VRB7      29.94S
APALACHICOLA   PTSUNNY   85  69  58 NE8       29.92S

STATION/POSITION SKY/WX   TEMP    WIND        PRES    WAVE   SWELL
                          AIR SEA DIR/SP/G            HT/PER HT/PER
                          (F)     (DEG/KT/KT) (MB)    (FT/S) (FT/S)
30.1N   87.6W              81 85   60/ 16/ 17 1013.7F   4/ 7
29.2N   88.2W              80 84   60/ 19/ 23 1013.5F   5/ 5
28.8N   86.0W              80 85   50/ 16/ 19 1012.8S   5/ 6
PANAMA CITY BEAC           82 85   40/ 10/ 13 1013.8F
CAPE SAN BLAS    NOT AVBL
TOWER C                    79      50/ 10/ 11 1013.3S
28.5N   84.5W              79 84   40/ 12/ 14 1012.9F   2/ 4

$$
FLZ011-016>038-118-127-128-134-139-239-202300-
NORTH FLORIDA

CITY           SKY/WX    TMP DP  RH WIND       PRES   REMARKS
MARIANNA       CLOUDY    81  69  67 NE9       29.95S
TALLAHASSEE    PTSUNNY   81  69  67 N7        29.94S
PERRY          SUNNY     81  66  61 NE12      29.92S
CROSS CITY       N/A     78  72  81 CALM      29.91S
LAKE CITY      PTSUNNY   75  70  83 NE5       29.94R
GAINESVILLE    CLOUDY    77  70  79 N14       29.93R
MAYPORT NAS    LGT RAIN  75  71  87 N15       29.91F
JACKSONVILLE   LGT RAIN  72  71  97 N12       29.93S
JAX NAS        LGT RAIN  76  70  82 N16       29.93S
JAX CRAIG      RAIN      74  71  91 N9        29.92S FOG
JAX CECIL      PTSUNNY   73  70  88 NE12G24   29.93S
ST AUGUSTINE   CLOUDY    78  73  84 N7        29.90S

STATION/POSITION SKY/WX   TEMP    WIND        PRES    WAVE   SWELL
                          AIR SEA DIR/SP/G            HT/PER HT/PER
                          (F)     (DEG/KT/KT) (MB)    (FT/S) (FT/S)
SHELL POINT                84      30/  5/  9   N/A
KEATON BEACH               77      70/  3/  4 1013.2R
CEDAR KEY                  77      50/ 13/ 17 1013.2R
FERNANDINA                 74 83   30/  7/ 16 1012.7F
30.7N   81.3W                 84                N/A     7/ 6   2/11
MAYPORT                    75 83   30/ 14/ 21   N/A
31.4N   80.9W              77 83   30/ 21/ 25 1012.5F   7/ 7
ST AUGUSTINE               78     360/ 21/ 25 1012.5R

$$
FLZ040-043>046-052-053-057-058-063-144-202300-
INTERIOR CENTRAL FLORIDA

CITY           SKY/WX    TMP DP  RH WIND       PRES   REMARKS
OCALA          MOSUNNY   79  70  73 NE7       29.91S
THE VILLAGES     N/A     75  73  94 CALM      29.81S FOG
LEESBURG       PTSUNNY   78  70  76 N8        29.91R
SANFORD        PTSUNNY   79  72  79 N9        29.88S
ORLANDO EXEC   LGT RAIN  82  69  64 N18G26    29.89R
ORLANDO INTL   PTSUNNY   82  69  64 NW12      29.88S
KISSIMMEE      PTSUNNY   82  72  69 NW8       29.89S
WINTER HAVEN   MOSUNNY   82  67  60 NW5       29.91R
LAKELAND       PTSUNNY   82  66  57 CALM      29.90S
BARTOW         FAIR      82  66  57 W3        29.91R
OKEECHOBEE     DRIZZLE   73  72  94 MISG      29.91S

$$
FLZ041-047-054-059-064-141-147-202300-
EAST CENTRAL FLORIDA

CITY           SKY/WX    TMP DP  RH WIND       PRES   REMARKS
ORMOND BEACH   LGT RAIN  73  72  94 N12G20    29.88S FOG
DAYTONA BEACH  HVY RAIN  74  72  93 N14G22    29.89R VSB 1/2
DELAND         PTCLDY    77  72  83 NW9       29.90S
NEW SMYRNA BEA PTSUNNY   75  72  88 NW7       29.87S
JFK SPACE CTR  PTSUNNY   77  72  83 NW6       29.86S
TITUSVILLE     PTSUNNY   79  72  78 NW9       29.87
CAPE CANAVERAL MOSUNNY   80  73  78 W9        29.85S
PATRICK AFB    MOSUNNY   77  73  89 SW3       29.87S
MELBOURNE      MOSUNNY   77  72  84 S6        29.88S
VERO BEACH     CLOUDY    75  71  87 NW6       29.89R
FT PIERCE      CLOUDY    77  72  84 W9        29.89R
STUART         PTSUNNY   77  72  83 W10       29.90

STATION/POSITION SKY/WX   TEMP    WIND        PRES    WAVE   SWELL
                          AIR SEA DIR/SP/G            HT/PER HT/PER
                          (F)     (DEG/KT/KT) (MB)    (FT/S) (FT/S)
28.5N   80.2W              79 84  290/ 12/ 16 1010.7S
28.9N   78.5W              79 84  240/ 14/ 16 1009.9F   6/ 8   5/ 8
TRIDENT PIER               80 84  250/  5/  7 1010.8R
28.4N   80.5W                 83                N/A     2/ 9
27.6N   80.2W                 83                N/A     2/ 7

$$
FLZ050-056-061-142-242-148-248-149-249-151-251-155-255-
160-260-202300-
WEST CENTRAL FLORIDA

CITY           SKY/WX    TMP DP  RH WIND       PRES   REMARKS
CRYSTAL RIVER  CLOUDY    77  70  78 N8        29.90R
INVERNESS      MOCLDY    81  59  47 NE16G22   29.91R
BROOKSVILLE    RAIN      78  74  87 S3        29.91R
ZEPHYRHILLS    FAIR      84  64  51 CALM      29.90S
CLEARWATER     MOSUNNY   82  72  71 NW7       29.90R
TAMPA INTL     PTSUNNY   82  71  69 SW7       29.90R
TAMPA EXEC     MOSUNNY   84  72  65 CALM      29.90S
PLANT CITY     MOSUNNY   84  70  61 CALM      29.92R
MACDILL AFB    MOSUNNY   82  73  74 SW3       29.90S
ST PETERSBURG  MOSUNNY   79  70  74 SW5       29.89R
SARASOTA       PTSUNNY   83  68  60 VRB5      29.89S
VENICE           N/A    N/A N/A N/A MISG        N/A

STATION/POSITION SKY/WX   TEMP    WIND        PRES    WAVE   SWELL
                          AIR SEA DIR/SP/G            HT/PER HT/PER
                          (F)     (DEG/KT/KT) (MB)    (FT/S) (FT/S)
CEDAR KEY                  77      50/ 13/ 17 1013.2R
28.5N   84.5W              79 84   40/ 12/ 14 1012.9F   2/ 4
27.3N   84.3W                 85                N/A     2/ 4
CLEARWATER BEACH NOT AVBL
MIDDLE TAMPA BAY           80     240/  3/  4 1012.7S
VENICE                     78 85  290/  7/  8 1012.6F

$$
FLZ066-069-070-075>078-162-262-165-265-202300-
SOUTHWEST FLORIDA AND KEYS

CITY           SKY/WX    TMP DP  RH WIND       PRES   REMARKS
PUNTA GORDA    CLOUDY    76  73  91 NW9       29.94R
FT MYERS       CLOUDY    77  72  84 W6        29.91R
SOUTHWEST INTL CLOUDY    79  60  52 W3        29.92R
NAPLES         LGT RAIN  80  75  84 W6        29.93R
MARCO ISLAND   PTCLDY    79  73  83 W5        29.93R
MARATHON       PTSUNNY   83  78  85 NW10      29.91R
KEY WEST NAS   CLOUDY    83  76  79 N15       29.91R
KEY WEST INTL  PTSUNNY   83  75  77 N14       29.92R

STATION/POSITION SKY/WX   TEMP    WIND        PRES    WAVE   SWELL
                          AIR SEA DIR/SP/G            HT/PER HT/PER
                          (F)     (DEG/KT/KT) (MB)    (FT/S) (FT/S)
VENICE                     78 85  290/  7/  8 1012.6F
NAPLES                     80 87  290/ 10/ 11 1013.9R
DRY TORTUGAS               77     360/ 16/ 18 1013.2S
NW FL BAY                  81     360/ 14/ 18 1012.6R
SAND KEY                   84     300/ 11/ 13 1012.8R
SOMBRERO KEY               82     340/ 18/ 19 1013.6R
LONG KEY                   81 86  360/ 15/ 16 1013.7R
MOLASSES REEF              83 86  310/ 13/ 15 1012.5R

$$
FLZ067-068-071>074-168-172>174-202300-
SOUTHEAST FLORIDA

CITY           SKY/WX    TMP DP  RH WIND       PRES   REMARKS
W PALM BEACH   CLOUDY    81  72  74 W14       29.90R
FT LAUDER-EXEC TSTM      75  75 100 SW7       29.91S
FT LAUDERDALE  CLOUDY    76  74  93 CALM      29.91R
POMPANO BEACH  CLOUDY    77  72  84 SW6       29.91S
PEMBROKE PINES LGT RAIN  76  75  97 CALM      29.93R
OPA LOCKA      LGT RAIN  78  74  87 CALM      29.92R
MIAMI          LGT RAIN  75  72  90 CALM      29.92S
WEST KENDALL   LGT RAIN  78  73  84 NW3       29.92S
HOMESTEAD      CLOUDY    81  74  79 NW10      29.92R

STATION/POSITION SKY/WX   TEMP    WIND        PRES    WAVE   SWELL
                          AIR SEA DIR/SP/G            HT/PER HT/PER
                          (F)     (DEG/KT/KT) (MB)    (FT/S) (FT/S)
PORT EVERGLADES            76     260/  5/  7 1012.8
VIRGINIA KEY               78 85  290/  5/ 10   N/A
LAKE WORTH                 81 86  250/ 12/ 15 1012.3S
FOWEY ROCKS                78 85  130/  2/  4 1014.0R
SETTLEMENT POINT           74     260/ 18/ 23 1014.1R

$$




USA.gov is the U.S. government's official web portal to all federal, state and local government web resources and services.